Location: Condor
(52.3263°N, 114.5541°W)
Time: 22:49:47
(UTC+00:00)

Oscar 19 - Pass Details

Date: 09 December 2023
Orbit: 771 x 789 km, 98.9° (Epoch: 04 March)

Event Time Altitude Azimuth Distance (km) Brightness Sun altitude
Rises 11:29:23 0° 23° (NNE) 3,277 14.2 -36.2°
Reaches altitude 10° 11:32:05 10° 36° (NE) 2,347 13.6 -35.8°
Maximum altitude 11:36:23 26° 93° (E) 1,509 12.6 -35.2°
Drops below altitude 10° 11:40:41 10° 149° (SSE) 2,342 13.3 -34.5°
Sets 11:43:22 0° 162° (SSE) 3,268 14.0 -34.1°
